Regional Weather Roundup
Issued by NWS

Home | Current Version | Previous Version | Text Only | Print | Product List | Glossary On
Versions: 1 2 3 4 5 6 7 8 9 10 11 12 13 14 15 16 17 18 19 20 21 22 23 24 25 26 27 28
000
ASPQ40 PGUM 181912
RWRPQ
WEATHER ROUNDUP FOR THE MARIANAS AND MICRONESIA
NATIONAL WEATHER SERVICE TIYAN GU
500 AM CHST THU OCT 19 2017

GUZ001>004-182000-
MARIANA ISLANDS-

CITY           SKY/WX    TMP DP  RH WIND       PRES   REMARKS
GUAM AIRPORT   PTCLDY    81  79  94 NW10      29.76S
ANDERSEN AFB   MOCLDY    79  75  89 NW15      29.77F
ROTA AIRPORT   NOT AVBL
TINIAN AP      NOT AVBL
SAIPAN AP      LGT RAIN  81  77  89 W15G30    29.75R FOG

$$

PMZ161-182000-
REPUBLIC OF PALAU-

CITY           SKY/WX    TMP DP  RH WIND       PRES   REMARKS
KOROR AP       NOT AVBL
KOROR WSO      MOCLDY    84  75  74 S16       29.67S HX  92

$$

PMZ171>174-182000-
FEDERATED STATES OF MICRONESIA-

CITY           SKY/WX    TMP DP  RH WIND       PRES   REMARKS
YAP AIRPORT    MOCLDY    84  79  84 S8        29.69R HX  96
CHUUK AP       PTCLDY    82  77  83 N12       29.76R HX  91
POHNPEI AP     NOT AVBL
POHNPEI WSO    CLOUDY    77  75  94 SE6       29.81R
KOSRAE AP      NOT AVBL

$$

PMZ181-182000-
REPUBLIC OF THE MARSHALL ISLANDS-

CITY           SKY/WX    TMP DP  RH WIND       PRES   REMARKS
KWAJALEIN AP   DRIZZLE   79  77  94 SE3       29.80R
MAJURO AP      NOT AVBL
MAJURO WSO     MOCLDY    82  75  78 W5        29.78

$$





USA.gov is the U.S. government's official web portal to all federal, state and local government web resources and services.